• In Uzbekistan
  • List of Countries
  • For 7 days
  • Water Temperature
  • Satellite Maps
  • Weather Map
  • Weather Widgets
  • user-avatar
    Login

    Hourly Weather Durres

    Today, 26 April, Wednesday

    Time Temperature Precipitation Wind Pressure Humidity
    00:00 +11°C° 0 mm 4 mps 763 mmHg 90%
    01:00 +10°C° 0 mm 4 mps 763 mmHg 90%
    02:00 +10°C° 0 mm 4 mps 763 mmHg 90%
    03:00 +10°C° 0 mm 4 mps 762 mmHg 89%
    04:00 +10°C° 0 mm 4 mps 762 mmHg 89%
    05:00 +12°C° 0 mm 4 mps 762 mmHg 81%
    06:00 +14°C° 0 mm 4 mps 762 mmHg 73%
    07:00 +15°C° 0 mm 4 mps 762 mmHg 65%
    08:00 +18°C° 0 mm 4 mps 762 mmHg 56%
    09:00 +20°C° 0 mm 4 mps 762 mmHg 47%
    10:00 +22°C° 0 mm 4 mps 762 mmHg 38%
    11:00 +22°C° 0 mm 5 mps 762 mmHg 37%
    12:00 +23°C° 0 mm 6 mps 762 mmHg 36%
    13:00 +23°C° 0 mm 7 mps 762 mmHg 35%
    14:00 +23°C° 0 mm 7 mps 761 mmHg 39%
    15:00 +22°C° 0 mm 7 mps 761 mmHg 42%
    16:00 +22°C° 0 mm 7 mps 761 mmHg 45%
    17:00 +19°C° 0 mm 6 mps 761 mmHg 55%
    18:00 +16°C° 0 mm 6 mps 761 mmHg 66%
    19:00 +14°C° 0 mm 5 mps 762 mmHg 76%
    20:00 +13°C° 0 mm 5 mps 762 mmHg 77%
    21:00 +13°C° 0 mm 4 mps 762 mmHg 78%
    22:00 +12°C° 0 mm 4 mps 762 mmHg 79%
    23:00 +12°C° 0 mm 4 mps 762 mmHg 77%

    Tomorrow, 27 April, Thursday

    Time Temperature Precipitation Wind Pressure Humidity
    00:00 +12°C° 0 mm 4 mps 762 mmHg 76%
    01:00 +12°C° 0 mm 4 mps 762 mmHg 75%
    02:00 +12°C° 0 mm 4 mps 762 mmHg 74%
    03:00 +12°C° 0 mm 4 mps 761 mmHg 72%
    04:00 +12°C° 0 mm 4 mps 761 mmHg 71%
    05:00 +14°C° 0 mm 4 mps 761 mmHg 64%
    06:00 +17°C° 0 mm 4 mps 761 mmHg 58%
    07:00 +19°C° 0 mm 3 mps 761 mmHg 52%
    08:00 +20°C° 0 mm 4 mps 761 mmHg 46%
    09:00 +22°C° 0 mm 4 mps 761 mmHg 40%
    10:00 +25°C° 0 mm 4 mps 761 mmHg 34%
    11:00 +25°C° 0 mm 4 mps 761 mmHg 34%
    12:00 +26°C° 0 mm 5 mps 761 mmHg 34%
    13:00 +26°C° 0 mm 5 mps 761 mmHg 34%
    14:00 +26°C° 0 mm 6 mps 760 mmHg 36%
    15:00 +24°C° 0 mm 6 mps 760 mmHg 38%
    16:00 +23°C° 0 mm 6 mps 760 mmHg 41%
    17:00 +21°C° 0 mm 5 mps 760 mmHg 49%
    18:00 +19°C° 0 mm 5 mps 760 mmHg 57%
    19:00 +15°C° 0 mm 5 mps 760 mmHg 65%
    20:00 +15°C° 0 mm 5 mps 760 mmHg 67%
    21:00 +14°C° 0 mm 5 mps 761 mmHg 68%
    22:00 +14°C° 0 mm 5 mps 761 mmHg 69%
    23:00 +14°C° 0 mm 5 mps 761 mmHg 66%

    Day after tomorrow, 28 April, Friday

    Time Temperature Precipitation Wind Pressure Humidity
    00:00 +15°C° 0 mm 5 mps 760 mmHg 63%
    01:00 +15°C° 0 mm 5 mps 760 mmHg 60%
    02:00 +14°C° 0 mm 5 mps 760 mmHg 62%
    03:00 +14°C° 0 mm 5 mps 760 mmHg 64%
    04:00 +13°C° 0 mm 5 mps 760 mmHg 67%
    05:00 +15°C° 0 mm 5 mps 760 mmHg 60%
    06:00 +17°C° 0 mm 5 mps 760 mmHg 54%
    07:00 +20°C° 0 mm 5 mps 760 mmHg 48%
    08:00 +22°C° 0 mm 5 mps 760 mmHg 42%
    09:00 +24°C° 0 mm 6 mps 760 mmHg 36%
    10:00 +26°C° 0 mm 6 mps 760 mmHg 30%
    11:00 +27°C° 0 mm 7 mps 759 mmHg 31%
    12:00 +27°C° 0 mm 8 mps 759 mmHg 32%
    13:00 +27°C° 0 mm 8 mps 759 mmHg 33%
    14:00 +27°C° 0 mm 8 mps 759 mmHg 36%
    15:00 +26°C° 0 mm 7 mps 758 mmHg 40%
    16:00 +24°C° 0 mm 7 mps 758 mmHg 43%
    17:00 +22°C° 0 mm 7 mps 758 mmHg 49%
    18:00 +20°C° 0 mm 7 mps 758 mmHg 55%
    19:00 +17°C° 0 mm 8 mps 758 mmHg 61%
    20:00 +17°C° 0 mm 7 mps 758 mmHg 60%
    21:00 +17°C° 0 mm 7 mps 758 mmHg 60%
    22:00 +17°C° 0 mm 7 mps 758 mmHg 59%
    23:00 +16°C° 0 mm 7 mps 758 mmHg 59%

    29 April, Saturday

    Time Temperature Precipitation Wind Pressure Humidity
    00:00 +16°C° 0 mm 7 mps 758 mmHg 59%
    01:00 +16°C° 0 mm 7 mps 758 mmHg 58%
    02:00 +16°C° 0 mm 6 mps 758 mmHg 59%
    03:00 +15°C° 0 mm 5 mps 757 mmHg 60%
    04:00 +15°C° 0 mm 4 mps 757 mmHg 60%
    05:00 +17°C° 0.3 mm 4 mps 757 mmHg 58%
    06:00 +18°C° 0.3 mm 4 mps 757 mmHg 56%
    07:00 +20°C° 0.3 mm 3 mps 757 mmHg 54%
    08:00 +21°C° 0.4 mm 3 mps 757 mmHg 50%
    09:00 +22°C° 0.4 mm 4 mps 757 mmHg 47%
    10:00 +23°C° 0.4 mm 4 mps 757 mmHg 43%
    11:00 +23°C° 0.2 mm 5 mps 757 mmHg 45%
    12:00 +25°C° 0.2 mm 5 mps 757 mmHg 46%
    13:00 +24°C° 0.2 mm 6 mps 757 mmHg 48%
    14:00 +23°C° 0.1 mm 6 mps 757 mmHg 55%
    15:00 +21°C° 0.1 mm 6 mps 757 mmHg 62%
    16:00 +20°C° 0.1 mm 6 mps 757 mmHg 69%
    17:00 +19°C° 0.4 mm 5 mps 757 mmHg 77%
    18:00 +16°C° 0.4 mm 5 mps 758 mmHg 84%
    19:00 +15°C° 0.4 mm 5 mps 758 mmHg 92%
    20:00 +14°C° 0.1 mm 5 mps 758 mmHg 92%
    21:00 +14°C° 0.1 mm 4 mps 758 mmHg 92%
    22:00 +14°C° 0.1 mm 4 mps 759 mmHg 92%
    23:00 +14°C° 0 mm 5 mps 758 mmHg 92%

    30 April, Sunday

    Time Temperature Precipitation Wind Pressure Humidity
    00:00 +13°C° 0 mm 5 mps 758 mmHg 92%
    01:00 +13°C° 0 mm 5 mps 758 mmHg 92%
    02:00 +13°C° 0 mm 5 mps 758 mmHg 91%
    03:00 +13°C° 0 mm 5 mps 758 mmHg 91%
    04:00 +13°C° 0 mm 5 mps 758 mmHg 91%
    05:00 +14°C° 0 mm 5 mps 758 mmHg 84%
    06:00 +16°C° 0 mm 5 mps 758 mmHg 78%
    07:00 +17°C° 0 mm 5 mps 758 mmHg 71%
    08:00 +20°C° 0 mm 5 mps 758 mmHg 64%
    09:00 +22°C° 0 mm 5 mps 758 mmHg 57%
    10:00 +23°C° 0 mm 5 mps 758 mmHg 50%
    11:00 +25°C° 0 mm 5 mps 758 mmHg 47%
    12:00 +26°C° 0 mm 5 mps 757 mmHg 44%
    13:00 +27°C° 0 mm 6 mps 757 mmHg 42%
    14:00 +26°C° 0 mm 6 mps 757 mmHg 43%
    15:00 +26°C° 0 mm 6 mps 756 mmHg 45%
    16:00 +26°C° 0 mm 6 mps 756 mmHg 46%
    17:00 +23°C° 0 mm 6 mps 756 mmHg 55%
    18:00 +20°C° 0 mm 6 mps 757 mmHg 64%
    19:00 +17°C° 0 mm 6 mps 757 mmHg 72%
    20:00 +17°C° 0 mm 5 mps 757 mmHg 74%
    21:00 +17°C° 0 mm 5 mps 757 mmHg 76%
    22:00 +17°C° 0 mm 4 mps 758 mmHg 77%
    23:00 +17°C° 0.1 mm 4 mps 758 mmHg 78%

    1 May, Monday

    Time Temperature Precipitation Wind Pressure Humidity
    00:00 +17°C° 0.1 mm 4 mps 758 mmHg 79%
    01:00 +16°C° 0.1 mm 3 mps 757 mmHg 81%
    02:00 +16°C° 0 mm 3 mps 757 mmHg 81%
    03:00 +16°C° 0 mm 3 mps 757 mmHg 81%
    04:00 +16°C° 0 mm 3 mps 757 mmHg 81%
    05:00 +17°C° 0 mm 2 mps 758 mmHg 77%
    06:00 +19°C° 0 mm 2 mps 758 mmHg 72%
    07:00 +20°C° 0 mm 2 mps 758 mmHg 68%
    08:00 +23°C° 0 mm 2 mps 758 mmHg 60%
    09:00 +25°C° 0 mm 2 mps 758 mmHg 51%
    10:00 +27°C° 0 mm 2 mps 758 mmHg 43%
    11:00 +27°C° 0 mm 3 mps 758 mmHg 43%
    12:00 +27°C° 0 mm 4 mps 758 mmHg 43%
    13:00 +27°C° 0 mm 4 mps 758 mmHg 43%
    14:00 +27°C° 0 mm 4 mps 758 mmHg 46%
    15:00 +26°C° 0 mm 4 mps 758 mmHg 50%
    16:00 +25°C° 0 mm 4 mps 758 mmHg 53%
    17:00 +22°C° 0 mm 4 mps 758 mmHg 63%
    18:00 +20°C° 0 mm 3 mps 758 mmHg 72%
    19:00 +18°C° 0 mm 3 mps 758 mmHg 82%
    20:00 +17°C° 0 mm 2 mps 758 mmHg 83%
    21:00 +17°C° 0 mm 2 mps 759 mmHg 84%
    22:00 +16°C° 0 mm 2 mps 759 mmHg 85%
    23:00 +16°C° 0 mm 2 mps 759 mmHg 86%
    Show more